Time,TemperatureF,DewpointF,PressureIn,WindDirection,WindDirectionDegrees,WindSpeedMPH,WindSpeedGustMPH,Humidity,HourlyPrecipIn,Conditions,Clouds,dailyrainin,SoftwareType,DateUTC
2013-07-19 00:01:00,54.4,50.8,0.00,SW,229,0.8,2.6,88,0.00,,,0.00,WUHU216CR1000,2013-07-19 07:01:00,
2013-07-19 00:06:00,53.8,50.6,0.00,SW,235,1.6,2.7,89,0.00,,,0.00,WUHU216CR1000,2013-07-19 07:06:00,
2013-07-19 00:11:00,53.8,50.6,0.00,SW,235,1.6,2.7,89,0.00,,,0.00,WUHU216CR1000,2013-07-19 07:11:00,
2013-07-19 00:16:00,53.3,50.5,0.00,SSW,210,1.7,2.7,90,0.00,,,0.00,WUHU216CR1000,2013-07-19 07:16:00,
2013-07-19 00:21:00,53.3,50.5,0.00,SSW,210,1.7,2.6,90,0.00,,,0.00,WUHU216CR1000,2013-07-19 07:21:00,
2013-07-19 00:26:00,53.3,50.5,0.00,SSW,210,1.7,2.6,90,0.00,,,0.00,WUHU216CR1000,2013-07-19 07:26:00,
2013-07-19 00:31:00,53.5,50.5,0.00,SW,236,1.4,2.6,90,0.00,,,0.00,WUHU216CR1000,2013-07-19 07:31:00,
2013-07-19 00:36:00,53.5,50.5,0.00,SW,236,1.4,2.3,90,0.00,,,0.00,WUHU216CR1000,2013-07-19 07:36:00,
2013-07-19 00:41:00,53.5,50.5,0.00,SW,236,1.4,2.3,90,0.00,,,0.00,WUHU216CR1000,2013-07-19 07:41:00,
2013-07-19 00:46:00,52.9,50.2,0.00,SW,227,1.5,2.6,90,0.00,,,0.00,WUHU216CR1000,2013-07-19 07:46:00,
2013-07-19 00:51:00,52.9,50.2,0.00,SW,227,1.5,2.6,90,0.00,,,0.00,WUHU216CR1000,2013-07-19 07:51:00,
2013-07-19 00:56:00,52.9,50.2,0.00,SW,227,1.5,2.6,90,0.00,,,0.00,WUHU216CR1000,2013-07-19 07:56:00,
2013-07-19 01:01:00,52.2,49.6,0.00,WSW,246,0.6,2.6,91,0.00,,,0.00,WUHU216CR1000,2013-07-19 08:01:00,
2013-07-19 01:06:00,52.2,49.6,0.00,WSW,246,0.6,2.2,91,0.00,,,0.00,WUHU216CR1000,2013-07-19 08:06:00,
2013-07-19 01:11:00,52.2,49.6,0.00,WSW,246,0.6,2.2,91,0.00,,,0.00,WUHU216CR1000,2013-07-19 08:11:00,
2013-07-19 01:16:00,51.4,49.0,0.00,North,0,0.0,2.2,92,0.00,,,0.00,WUHU216CR1000,2013-07-19 08:16:00,
2013-07-19 01:21:00,51.4,49.0,0.00,North,0,0.0,0.0,92,0.00,,,0.00,WUHU216CR1000,2013-07-19 08:21:00,
2013-07-19 01:26:00,51.4,49.0,0.00,North,0,0.0,0.0,92,0.00,,,0.00,WUHU216CR1000,2013-07-19 08:26:00,
2013-07-19 01:31:00,51.4,49.5,0.00,North,0,0.0,0.0,93,0.00,,,0.00,WUHU216CR1000,2013-07-19 08:31:00,
2013-07-19 01:36:00,51.4,49.5,0.00,North,0,0.0,0.0,93,0.00,,,0.00,WUHU216CR1000,2013-07-19 08:36:00,
2013-07-19 01:41:00,51.4,49.5,0.00,North,0,0.0,0.0,93,0.00,,,0.00,WUHU216CR1000,2013-07-19 08:41:00,
2013-07-19 01:46:00,51.4,49.5,0.00,North,0,0.0,0.0,93,0.00,,,0.00,WUHU216CR1000,2013-07-19 08:46:00,
2013-07-19 01:51:00,50.6,48.5,0.00,North,0,0.0,0.0,93,0.00,,,0.00,WUHU216CR1000,2013-07-19 08:51:00,
2013-07-19 01:56:00,50.6,48.5,0.00,North,0,0.0,0.0,93,0.00,,,0.00,WUHU216CR1000,2013-07-19 08:56:00,
2013-07-19 02:01:00,50.6,48.5,0.00,North,0,0.0,0.0,93,0.00,,,0.00,WUHU216CR1000,2013-07-19 09:01:00,
2013-07-19 02:06:00,49.9,47.7,0.00,North,0,0.0,0.0,92,0.00,,,0.00,WUHU216CR1000,2013-07-19 09:06:00,
2013-07-19 02:11:00,49.9,47.7,0.00,North,0,0.0,0.0,92,0.00,,,0.00,WUHU216CR1000,2013-07-19 09:11:00,
2013-07-19 02:16:00,49.9,47.7,0.00,North,0,0.0,0.0,92,0.00,,,0.00,WUHU216CR1000,2013-07-19 09:16:00,
2013-07-19 02:21:00,49.4,47.4,0.00,North,0,0.0,0.0,93,0.00,,,0.00,WUHU216CR1000,2013-07-19 09:21:00,
2013-07-19 02:26:00,49.4,47.4,0.00,North,0,0.0,0.0,93,0.00,,,0.00,WUHU216CR1000,2013-07-19 09:26:00,
2013-07-19 02:31:00,49.4,47.4,0.00,North,0,0.0,0.0,93,0.00,,,0.00,WUHU216CR1000,2013-07-19 09:31:00,
2013-07-19 02:36:00,49.4,47.4,0.00,North,0,0.0,0.0,93,0.00,,,0.00,WUHU216CR1000,2013-07-19 09:36:00,
2013-07-19 02:41:00,49.4,47.4,0.00,North,0,0.0,0.0,93,0.00,,,0.00,WUHU216CR1000,2013-07-19 09:41:00,
2013-07-19 02:46:00,49.4,47.4,0.00,North,0,0.0,0.0,93,0.00,,,0.00,WUHU216CR1000,2013-07-19 09:46:00,
2013-07-19 02:51:00,49.4,47.4,0.00,North,0,0.0,0.0,93,0.00,,,0.00,WUHU216CR1000,2013-07-19 09:51:00,
2013-07-19 03:01:00,48.1,45.8,0.00,North,0,0.0,0.0,91,0.00,,,0.00,WUHU216CR1000,2013-07-19 10:01:00,
2013-07-19 03:06:00,48.1,45.8,0.00,North,0,0.0,0.0,91,0.00,,,0.00,WUHU216CR1000,2013-07-19 10:06:00,
2013-07-19 03:11:00,48.1,45.8,0.00,North,0,0.0,0.0,91,0.00,,,0.00,WUHU216CR1000,2013-07-19 10:11:00,
2013-07-19 03:16:00,48.2,45.8,0.00,North,0,0.0,0.0,92,0.00,,,0.00,WUHU216CR1000,2013-07-19 10:16:00,
2013-07-19 03:21:00,48.2,45.8,0.00,North,0,0.0,0.0,92,0.00,,,0.00,WUHU216CR1000,2013-07-19 10:21:00,
2013-07-19 03:26:00,48.2,45.8,0.00,North,0,0.0,0.0,92,0.00,,,0.00,WUHU216CR1000,2013-07-19 10:26:00,
2013-07-19 03:31:00,48.1,45.6,0.00,North,0,0.0,0.0,91,0.00,,,0.00,WUHU216CR1000,2013-07-19 10:31:00,
2013-07-19 03:36:00,48.1,45.6,0.00,North,0,0.0,0.0,91,0.00,,,0.00,WUHU216CR1000,2013-07-19 10:36:00,
2013-07-19 03:41:00,48.1,45.6,0.00,North,0,0.0,0.0,91,0.00,,,0.00,WUHU216CR1000,2013-07-19 10:41:00,
2013-07-19 03:46:00,48.1,45.6,0.00,North,0,0.0,0.0,91,0.00,,,0.00,WUHU216CR1000,2013-07-19 10:46:00,
2013-07-19 03:51:00,48.4,46.4,0.00,North,0,0.0,0.0,93,0.00,,,0.00,WUHU216CR1000,2013-07-19 10:51:00,
2013-07-19 03:56:00,48.4,46.4,0.00,North,0,0.0,0.0,93,0.00,,,0.00,WUHU216CR1000,2013-07-19 10:56:00,
2013-07-19 04:01:00,48.4,46.4,0.00,North,0,0.0,0.0,93,0.00,,,0.00,WUHU216CR1000,2013-07-19 11:01:00,
2013-07-19 04:06:00,48.1,46.4,0.00,North,0,0.0,0.0,94,0.00,,,0.00,WUHU216CR1000,2013-07-19 11:06:00,
2013-07-19 04:11:00,48.1,46.4,0.00,North,0,0.0,0.0,94,0.00,,,0.00,WUHU216CR1000,2013-07-19 11:11:00,
2013-07-19 04:16:00,48.1,46.4,0.00,North,0,0.0,0.0,94,0.00,,,0.00,WUHU216CR1000,2013-07-19 11:16:00,
2013-07-19 04:21:00,47.4,45.9,0.00,ESE,105,0.6,3.0,94,0.00,,,0.00,WUHU216CR1000,2013-07-19 11:21:00,
2013-07-19 04:26:00,47.4,45.9,0.00,ESE,105,0.6,3.0,94,0.00,,,0.00,WUHU216CR1000,2013-07-19 11:26:00,
2013-07-19 04:31:00,47.8,46.5,0.00,East,95,2.1,3.0,95,0.00,,,0.00,WUHU216CR1000,2013-07-19 11:31:00,
2013-07-19 04:36:00,47.8,46.5,0.00,East,95,2.1,3.0,95,0.00,,,0.00,WUHU216CR1000,2013-07-19 11:36:00,
2013-07-19 04:41:00,47.8,46.5,0.00,East,95,2.1,3.0,95,0.00,,,0.00,WUHU216CR1000,2013-07-19 11:41:00,
2013-07-19 04:46:00,47.8,46.5,0.00,East,95,2.1,3.0,95,0.00,,,0.00,WUHU216CR1000,2013-07-19 11:46:00,
2013-07-19 04:51:00,48.1,46.9,0.00,ESE,121,1.6,2.6,95,0.00,,,0.00,WUHU216CR1000,2013-07-19 11:51:00,
2013-07-19 04:56:00,48.1,46.9,0.00,ESE,121,1.6,2.6,95,0.00,,,0.00,WUHU216CR1000,2013-07-19 11:56:00,
2013-07-19 05:01:00,47.1,45.7,0.00,North,0,0.0,2.6,95,0.00,,,0.00,WUHU216CR1000,2013-07-19 12:01:00,
2013-07-19 05:06:00,47.1,45.7,0.00,North,0,0.0,0.0,95,0.00,,,0.00,WUHU216CR1000,2013-07-19 12:06:00,
2013-07-19 05:11:00,47.1,45.7,0.00,North,0,0.0,0.0,95,0.00,,,0.00,WUHU216CR1000,2013-07-19 12:11:00,
2013-07-19 05:16:00,47.1,45.7,0.00,North,0,0.0,0.0,95,0.00,,,0.00,WUHU216CR1000,2013-07-19 12:16:00,
2013-07-19 05:21:00,47.1,45.6,0.00,North,0,0.0,0.0,95,0.00,,,0.00,WUHU216CR1000,2013-07-19 12:21:00,
2013-07-19 05:26:00,47.1,45.6,0.00,North,0,0.0,0.0,95,0.00,,,0.00,WUHU216CR1000,2013-07-19 12:26:00,
2013-07-19 05:31:00,47.1,45.6,0.00,North,0,0.0,0.0,95,0.00,,,0.00,WUHU216CR1000,2013-07-19 12:31:00,
2013-07-19 05:36:00,46.9,45.3,0.00,North,0,0.0,0.0,94,0.00,,,0.00,WUHU216CR1000,2013-07-19 12:36:00,
2013-07-19 05:41:00,46.9,45.3,0.00,North,0,0.0,0.0,94,0.00,,,0.00,WUHU216CR1000,2013-07-19 12:41:00,
2013-07-19 05:46:00,46.9,45.3,0.00,North,0,0.0,0.0,94,0.00,,,0.00,WUHU216CR1000,2013-07-19 12:46:00,
2013-07-19 05:51:00,48.2,46.8,0.00,North,0,0.0,0.0,95,0.00,,,0.00,WUHU216CR1000,2013-07-19 12:51:00,
2013-07-19 05:56:00,48.2,46.8,0.00,North,0,0.0,0.0,95,0.00,,,0.00,WUHU216CR1000,2013-07-19 12:56:00,
2013-07-19 06:01:00,48.2,46.8,0.00,North,0,0.0,0.0,95,0.00,,,0.00,WUHU216CR1000,2013-07-19 13:01:00,
2013-07-19 06:06:00,49.8,48.5,0.00,North,0,0.0,0.0,95,0.00,,,0.00,WUHU216CR1000,2013-07-19 13:06:00,
2013-07-19 06:11:00,49.8,48.5,0.00,North,0,0.0,0.0,95,0.00,,,0.00,WUHU216CR1000,2013-07-19 13:11:00,
2013-07-19 06:16:00,49.8,48.5,0.00,North,0,0.0,0.0,95,0.00,,,0.00,WUHU216CR1000,2013-07-19 13:16:00,
2013-07-19 06:21:00,50.6,49.4,0.00,North,0,0.0,0.0,96,0.00,,,0.00,WUHU216CR1000,2013-07-19 13:21:00,
2013-07-19 06:26:00,50.6,49.4,0.00,North,0,0.0,0.0,96,0.00,,,0.00,WUHU216CR1000,2013-07-19 13:26:00,
2013-07-19 06:31:00,50.6,49.4,0.00,North,0,0.0,0.0,96,0.00,,,0.00,WUHU216CR1000,2013-07-19 13:31:00,
2013-07-19 06:36:00,50.9,49.8,0.00,North,0,0.0,0.0,96,0.00,,,0.00,WUHU216CR1000,2013-07-19 13:36:00,
2013-07-19 06:41:00,50.9,49.8,0.00,North,0,0.0,0.0,96,0.00,,,0.00,WUHU216CR1000,2013-07-19 13:41:00,
2013-07-19 06:46:00,50.9,49.8,0.00,North,0,0.0,0.0,96,0.00,,,0.00,WUHU216CR1000,2013-07-19 13:46:00,
2013-07-19 06:51:00,51.0,50.0,0.00,East,100,0.4,2.2,96,0.00,,,0.00,WUHU216CR1000,2013-07-19 13:51:00,
2013-07-19 06:56:00,51.0,50.0,0.00,East,100,0.4,2.2,96,0.00,,,0.00,WUHU216CR1000,2013-07-19 13:56:00,
2013-07-19 07:01:00,51.0,50.0,0.00,East,100,0.4,2.2,96,0.00,,,0.00,WUHU216CR1000,2013-07-19 14:01:00,
2013-07-19 07:06:00,51.3,50.4,0.00,East,93,1.9,3.2,96,0.00,,,0.00,WUHU216CR1000,2013-07-19 14:06:00,
2013-07-19 07:11:00,51.3,50.4,0.00,East,93,1.9,3.2,96,0.00,,,0.00,WUHU216CR1000,2013-07-19 14:11:00,
2013-07-19 07:16:00,51.3,50.4,0.00,East,93,1.9,3.2,96,0.00,,,0.00,WUHU216CR1000,2013-07-19 14:16:00,
2013-07-19 07:21:00,51.3,50.3,0.00,East,82,2.5,3.7,97,0.00,,,0.00,WUHU216CR1000,2013-07-19 14:21:00,
2013-07-19 07:26:00,51.3,50.3,0.00,East,82,2.5,3.7,97,0.00,,,0.00,WUHU216CR1000,2013-07-19 14:26:00,
2013-07-19 07:31:00,51.3,50.3,0.00,East,82,2.5,3.7,97,0.00,,,0.00,WUHU216CR1000,2013-07-19 14:31:00,
2013-07-19 07:36:00,51.4,50.5,0.00,East,96,0.9,3.7,97,0.00,,,0.00,WUHU216CR1000,2013-07-19 14:36:00,
2013-07-19 07:41:00,51.4,50.5,0.00,East,96,0.9,3.3,97,0.00,,,0.00,WUHU216CR1000,2013-07-19 14:41:00,
2013-07-19 07:46:00,51.4,50.5,0.00,East,96,0.9,3.3,97,0.00,,,0.00,WUHU216CR1000,2013-07-19 14:46:00,
2013-07-19 07:51:00,51.5,50.6,0.00,East,96,1.3,3.4,97,0.00,,,0.00,WUHU216CR1000,2013-07-19 14:51:00,
2013-07-19 07:56:00,51.5,50.6,0.00,East,96,1.3,3.4,97,0.00,,,0.00,WUHU216CR1000,2013-07-19 14:56:00,
2013-07-19 08:01:00,51.9,51.0,0.00,East,94,1.5,4.7,97,0.00,,,0.00,WUHU216CR1000,2013-07-19 15:01:00,
2013-07-19 08:06:00,51.9,51.0,0.00,East,94,1.5,4.7,97,0.00,,,0.00,WUHU216CR1000,2013-07-19 15:06:00,
2013-07-19 08:11:00,51.9,51.0,0.00,East,94,1.5,4.7,97,0.00,,,0.00,WUHU216CR1000,2013-07-19 15:11:00,
2013-07-19 08:16:00,51.9,51.0,0.00,East,94,1.5,4.7,97,0.00,,,0.00,WUHU216CR1000,2013-07-19 15:16:00,
2013-07-19 08:21:00,52.5,51.5,0.00,NE,52,0.6,4.7,96,0.00,,,0.00,WUHU216CR1000,2013-07-19 15:21:00,
2013-07-19 08:26:00,52.5,51.5,0.00,NE,52,0.6,2.7,96,0.00,,,0.00,WUHU216CR1000,2013-07-19 15:26:00,
2013-07-19 08:31:00,53.0,51.6,0.00,NE,56,1.0,3.4,95,0.00,,,0.00,WUHU216CR1000,2013-07-19 15:31:00,
2013-07-19 08:36:00,53.0,51.6,0.00,NE,56,1.0,3.4,95,0.00,,,0.00,WUHU216CR1000,2013-07-19 15:36:00,
2013-07-19 08:41:00,53.0,51.6,0.00,NE,56,1.0,3.4,95,0.00,,,0.00,WUHU216CR1000,2013-07-19 15:41:00,
2013-07-19 08:46:00,54.0,51.8,0.00,NNE,17,0.7,3.4,92,0.00,,,0.00,WUHU216CR1000,2013-07-19 15:46:00,
2013-07-19 08:51:00,54.0,51.8,0.00,NNE,17,0.7,2.4,92,0.00,,,0.00,WUHU216CR1000,2013-07-19 15:51:00,
2013-07-19 08:56:00,54.0,51.8,0.00,NNE,17,0.7,2.4,92,0.00,,,0.00,WUHU216CR1000,2013-07-19 15:56:00,
2013-07-19 09:01:00,55.3,52.3,0.00,WSW,247,0.8,2.7,90,0.00,,,0.00,WUHU216CR1000,2013-07-19 16:01:00,
2013-07-19 09:06:00,55.3,52.3,0.00,WSW,247,0.8,2.7,90,0.00,,,0.00,WUHU216CR1000,2013-07-19 16:06:00,
2013-07-19 09:11:00,55.3,52.3,0.00,WSW,247,0.8,2.7,90,0.00,,,0.00,WUHU216CR1000,2013-07-19 16:11:00,
2013-07-19 09:16:00,56.4,52.6,0.00,NE,35,1.1,3.9,87,0.00,,,0.00,WUHU216CR1000,2013-07-19 16:16:00,
2013-07-19 09:21:00,56.4,52.6,0.00,NE,35,1.1,3.9,87,0.00,,,0.00,WUHU216CR1000,2013-07-19 16:21:00,
2013-07-19 09:26:00,56.4,52.6,0.00,NE,35,1.1,3.9,87,0.00,,,0.00,WUHU216CR1000,2013-07-19 16:26:00,
2013-07-19 09:31:00,59.3,53.6,0.00,ESE,122,2.4,4.9,81,0.00,,,0.00,WUHU216CR1000,2013-07-19 16:31:00,
2013-07-19 09:36:00,59.3,53.6,0.00,ESE,122,2.4,4.9,81,0.00,,,0.00,WUHU216CR1000,2013-07-19 16:36:00,
2013-07-19 09:41:00,59.3,53.6,0.00,ESE,122,2.4,4.9,81,0.00,,,0.00,WUHU216CR1000,2013-07-19 16:41:00,
2013-07-19 09:46:00,60.3,53.4,0.00,SSE,154,1.3,4.9,78,0.00,,,0.00,WUHU216CR1000,2013-07-19 16:46:00,
2013-07-19 09:51:00,60.3,53.4,0.00,SSE,154,1.3,4.5,78,0.00,,,0.00,WUHU216CR1000,2013-07-19 16:51:00,
2013-07-19 09:56:00,60.3,53.4,0.00,SSE,154,1.3,4.5,78,0.00,,,0.00,WUHU216CR1000,2013-07-19 16:56:00,
2013-07-19 10:01:00,61.8,53.6,0.00,NNW,329,1.1,4.5,75,0.00,,,0.00,WUHU216CR1000,2013-07-19 17:01:00,
2013-07-19 10:06:00,61.8,53.6,0.00,NNW,329,1.1,4.3,75,0.00,,,0.00,WUHU216CR1000,2013-07-19 17:06:00,
2013-07-19 10:11:00,61.8,53.6,0.00,NNW,329,1.1,4.3,75,0.00,,,0.00,WUHU216CR1000,2013-07-19 17:11:00,
2013-07-19 10:16:00,63.7,54.5,0.00,SW,230,1.6,5.7,72,0.00,,,0.00,WUHU216CR1000,2013-07-19 17:16:00,
2013-07-19 10:21:00,63.7,54.5,0.00,SW,230,1.6,5.7,72,0.00,,,0.00,WUHU216CR1000,2013-07-19 17:21:00,
2013-07-19 10:26:00,63.7,54.5,0.00,SW,230,1.6,5.7,72,0.00,,,0.00,WUHU216CR1000,2013-07-19 17:26:00,
2013-07-19 10:31:00,65.7,55.0,0.00,South,183,1.8,5.7,69,0.00,,,0.00,WUHU216CR1000,2013-07-19 17:31:00,
2013-07-19 10:36:00,65.7,55.0,0.00,South,183,1.8,5.3,69,0.00,,,0.00,WUHU216CR1000,2013-07-19 17:36:00,
2013-07-19 10:41:00,65.7,55.0,0.00,South,183,1.8,5.3,69,0.00,,,0.00,WUHU216CR1000,2013-07-19 17:41:00,
2013-07-19 10:46:00,67.0,55.4,0.00,SSW,210,2.0,5.3,66,0.00,,,0.00,WUHU216CR1000,2013-07-19 17:46:00,
2013-07-19 10:51:00,67.0,55.4,0.00,SSW,210,2.0,5.0,66,0.00,,,0.00,WUHU216CR1000,2013-07-19 17:51:00,
2013-07-19 10:56:00,67.0,55.4,0.00,SSW,210,2.0,5.0,66,0.00,,,0.00,WUHU216CR1000,2013-07-19 17:56:00,
2013-07-19 11:01:00,68.5,55.5,0.00,NW,318,1.8,5.0,63,0.00,,,0.00,WUHU216CR1000,2013-07-19 18:01:00,
2013-07-19 11:06:00,68.5,55.5,0.00,NW,318,1.8,4.6,63,0.00,,,0.00,WUHU216CR1000,2013-07-19 18:06:00,
2013-07-19 11:11:00,68.5,55.5,0.00,NW,318,1.8,4.6,63,0.00,,,0.00,WUHU216CR1000,2013-07-19 18:11:00,
2013-07-19 11:16:00,70.7,56.4,0.00,West,265,1.8,4.6,60,0.00,,,0.00,WUHU216CR1000,2013-07-19 18:16:00,
2013-07-19 11:21:00,70.7,56.4,0.00,West,265,1.8,4.3,60,0.00,,,0.00,WUHU216CR1000,2013-07-19 18:21:00,
2013-07-19 11:26:00,70.7,56.4,0.00,West,265,1.8,4.3,60,0.00,,,0.00,WUHU216CR1000,2013-07-19 18:26:00,
2013-07-19 11:31:00,72.7,56.9,0.00,WNW,296,1.8,4.7,58,0.00,,,0.00,WUHU216CR1000,2013-07-19 18:31:00,
2013-07-19 11:36:00,72.7,56.9,0.00,WNW,296,1.8,4.7,58,0.00,,,0.00,WUHU216CR1000,2013-07-19 18:36:00,
2013-07-19 11:41:00,72.7,56.9,0.00,WNW,296,1.8,4.7,58,0.00,,,0.00,WUHU216CR1000,2013-07-19 18:41:00,
2013-07-19 11:46:00,74.3,57.2,0.00,ESE,123,2.4,6.1,55,0.00,,,0.00,WUHU216CR1000,2013-07-19 18:46:00,
2013-07-19 11:51:00,74.3,57.2,0.00,ESE,123,2.4,6.1,55,0.00,,,0.00,WUHU216CR1000,2013-07-19 18:51:00,
2013-07-19 11:56:00,74.3,57.2,0.00,ESE,123,2.4,6.1,55,0.00,,,0.00,WUHU216CR1000,2013-07-19 18:56:00,
2013-07-19 12:01:00,74.3,57.2,0.00,ESE,123,2.4,6.1,55,0.00,,,0.00,WUHU216CR1000,2013-07-19 19:01:00,
2013-07-19 12:06:00,74.3,57.2,0.00,ESE,123,2.4,6.1,55,0.00,,,0.00,WUHU216CR1000,2013-07-19 19:06:00,
2013-07-19 12:11:00,74.3,57.2,0.00,ESE,123,2.4,6.1,55,0.00,,,0.00,WUHU216CR1000,2013-07-19 19:11:00,
2013-07-19 12:16:00,74.3,57.2,0.00,ESE,123,2.4,6.1,55,0.00,,,0.00,WUHU216CR1000,2013-07-19 19:16:00,
2013-07-19 12:21:00,74.3,57.2,0.00,ESE,123,2.4,6.1,55,0.00,,,0.00,WUHU216CR1000,2013-07-19 19:21:00,
2013-07-19 12:26:00,74.3,57.2,0.00,ESE,123,2.4,6.1,55,0.00,,,0.00,WUHU216CR1000,2013-07-19 19:26:00,
2013-07-19 12:31:00,74.3,57.2,0.00,ESE,123,2.4,6.1,55,0.00,,,0.00,WUHU216CR1000,2013-07-19 19:31:00,
2013-07-19 12:46:00,80.8,58.9,0.00,SW,224,1.6,4.4,47,0.00,,,0.00,WUHU216CR1000,2013-07-19 19:46:00,
2013-07-19 12:51:00,80.8,58.9,0.00,SW,224,1.6,4.4,47,0.00,,,0.00,WUHU216CR1000,2013-07-19 19:51:00,
2013-07-19 12:56:00,80.8,58.9,0.00,SW,224,1.6,4.4,47,0.00,,,0.00,WUHU216CR1000,2013-07-19 19:56:00,
2013-07-19 13:01:00,82.2,59.6,0.00,SE,135,3.0,7.0,47,0.00,,,0.00,WUHU216CR1000,2013-07-19 20:01:00,
2013-07-19 13:06:00,82.2,59.6,0.00,SE,135,3.0,7.0,47,0.00,,,0.00,WUHU216CR1000,2013-07-19 20:06:00,
2013-07-19 13:11:00,82.2,59.6,0.00,SE,135,3.0,7.0,47,0.00,,,0.00,WUHU216CR1000,2013-07-19 20:11:00,
2013-07-19 13:16:00,83.4,59.9,0.00,South,183,2.4,7.0,45,0.00,,,0.00,WUHU216CR1000,2013-07-19 20:16:00,
2013-07-19 13:21:00,83.4,59.9,0.00,South,183,2.4,7.0,45,0.00,,,0.00,WUHU216CR1000,2013-07-19 20:21:00,
2013-07-19 13:26:00,83.4,59.9,0.00,South,183,2.4,6.1,45,0.00,,,0.00,WUHU216CR1000,2013-07-19 20:26:00,
2013-07-19 13:31:00,83.4,59.9,0.00,South,183,2.4,6.1,45,0.00,,,0.00,WUHU216CR1000,2013-07-19 20:31:00,
2013-07-19 13:36:00,84.7,60.4,0.00,SSW,204,2.3,6.1,44,0.00,,,0.00,WUHU216CR1000,2013-07-19 20:36:00,
2013-07-19 13:41:00,84.7,60.4,0.00,SSW,204,2.3,5.2,44,0.00,,,0.00,WUHU216CR1000,2013-07-19 20:41:00,
2013-07-19 13:46:00,84.7,60.4,0.00,SSW,204,2.3,5.2,44,0.00,,,0.00,WUHU216CR1000,2013-07-19 20:46:00,
2013-07-19 13:51:00,87.1,61.2,0.00,SW,224,3.2,6.7,42,0.00,,,0.00,WUHU216CR1000,2013-07-19 20:51:00,
2013-07-19 13:56:00,87.1,61.2,0.00,SW,224,3.2,6.7,42,0.00,,,0.00,WUHU216CR1000,2013-07-19 20:56:00,
2013-07-19 14:01:00,88.1,61.3,0.00,South,184,2.9,6.7,41,0.00,,,0.00,WUHU216CR1000,2013-07-19 21:01:00,
2013-07-19 14:06:00,88.1,61.3,0.00,South,184,2.9,6.1,41,0.00,,,0.00,WUHU216CR1000,2013-07-19 21:06:00,
2013-07-19 14:11:00,88.1,61.3,0.00,South,184,2.9,6.1,41,0.00,,,0.00,WUHU216CR1000,2013-07-19 21:11:00,
2013-07-19 14:16:00,88.5,60.8,0.00,South,188,3.0,6.8,40,0.00,,,0.00,WUHU216CR1000,2013-07-19 21:16:00,
2013-07-19 14:21:00,88.5,60.8,0.00,South,188,3.0,6.8,40,0.00,,,0.00,WUHU216CR1000,2013-07-19 21:21:00,
2013-07-19 14:26:00,88.5,60.8,0.00,South,188,3.0,6.8,40,0.00,,,0.00,WUHU216CR1000,2013-07-19 21:26:00,
2013-07-19 14:31:00,88.5,60.8,0.00,South,188,3.0,6.8,40,0.00,,,0.00,WUHU216CR1000,2013-07-19 21:31:00,
2013-07-19 14:36:00,88.5,60.8,0.00,South,188,3.0,6.8,40,0.00,,,0.00,WUHU216CR1000,2013-07-19 21:36:00,
2013-07-19 14:41:00,88.5,60.8,0.00,South,188,3.0,6.8,40,0.00,,,0.00,WUHU216CR1000,2013-07-19 21:41:00,
2013-07-19 14:46:00,88.5,60.8,0.00,South,188,3.0,6.8,40,0.00,,,0.00,WUHU216CR1000,2013-07-19 21:46:00,
2013-07-19 14:51:00,88.5,60.8,0.00,South,188,3.0,6.8,40,0.00,,,0.00,WUHU216CR1000,2013-07-19 21:51:00,
2013-07-19 15:01:00,91.3,61.2,0.00,South,175,3.9,10.0,37,0.00,,,0.00,WUHU216CR1000,2013-07-19 22:01:00,
2013-07-19 15:06:00,91.3,61.2,0.00,South,175,3.9,10.0,37,0.00,,,0.00,WUHU216CR1000,2013-07-19 22:06:00,
2013-07-19 15:11:00,91.3,61.2,0.00,South,175,3.9,10.0,37,0.00,,,0.00,WUHU216CR1000,2013-07-19 22:11:00,
2013-07-19 15:16:00,91.7,61.6,0.00,SE,136,4.1,10.0,37,0.00,,,0.00,WUHU216CR1000,2013-07-19 22:16:00,
2013-07-19 15:21:00,91.7,61.6,0.00,SE,136,4.1,9.8,37,0.00,,,0.00,WUHU216CR1000,2013-07-19 22:21:00,
2013-07-19 15:26:00,91.7,61.6,0.00,SE,136,4.1,9.8,37,0.00,,,0.00,WUHU216CR1000,2013-07-19 22:26:00,
2013-07-19 15:31:00,91.7,61.6,0.00,SE,136,4.1,9.8,37,0.00,,,0.00,WUHU216CR1000,2013-07-19 22:31:00,
2013-07-19 15:36:00,91.7,61.6,0.00,SE,136,4.1,9.8,37,0.00,,,0.00,WUHU216CR1000,2013-07-19 22:36:00,
2013-07-19 15:41:00,91.7,61.6,0.00,SE,136,4.1,9.8,37,0.00,,,0.00,WUHU216CR1000,2013-07-19 22:41:00,
2013-07-19 15:46:00,91.7,61.6,0.00,SE,136,4.1,9.8,37,0.00,,,0.00,WUHU216CR1000,2013-07-19 22:46:00,
2013-07-19 15:51:00,91.7,61.6,0.00,SE,136,4.1,9.8,37,0.00,,,0.00,WUHU216CR1000,2013-07-19 22:51:00,
2013-07-19 15:56:00,91.7,61.6,0.00,SE,136,4.1,9.8,37,0.00,,,0.00,WUHU216CR1000,2013-07-19 22:56:00,
2013-07-19 16:01:00,91.7,61.6,0.00,SE,136,4.1,9.8,37,0.00,,,0.00,WUHU216CR1000,2013-07-19 23:01:00,
2013-07-19 16:06:00,91.7,61.6,0.00,SE,136,4.1,9.8,37,0.00,,,0.00,WUHU216CR1000,2013-07-19 23:06:00,
2013-07-19 16:16:00,91.3,63.0,0.00,South,174,3.3,8.8,39,0.00,,,0.00,WUHU216CR1000,2013-07-19 23:16:00,
2013-07-19 16:21:00,91.3,63.0,0.00,South,174,3.3,8.8,39,0.00,,,0.00,WUHU216CR1000,2013-07-19 23:21:00,
2013-07-19 16:26:00,91.3,63.0,0.00,South,174,3.3,8.8,39,0.00,,,0.00,WUHU216CR1000,2013-07-19 23:26:00,
2013-07-19 16:31:00,89.9,62.4,0.00,SE,130,5.2,9.8,40,0.00,,,0.00,WUHU216CR1000,2013-07-19 23:31:00,
2013-07-19 16:36:00,89.9,62.4,0.00,SE,130,5.2,9.8,40,0.00,,,0.00,WUHU216CR1000,2013-07-19 23:36:00,
2013-07-19 16:41:00,89.9,62.4,0.00,SE,130,5.2,9.8,40,0.00,,,0.00,WUHU216CR1000,2013-07-19 23:41:00,
2013-07-19 16:46:00,89.5,62.9,0.00,SSE,158,4.4,10.0,41,0.00,,,0.00,WUHU216CR1000,2013-07-19 23:46:00,
2013-07-19 16:51:00,89.5,62.9,0.00,SSE,158,4.4,10.0,41,0.00,,,0.00,WUHU216CR1000,2013-07-19 23:51:00,
2013-07-19 16:56:00,89.5,62.9,0.00,SSE,158,4.4,10.0,41,0.00,,,0.00,WUHU216CR1000,2013-07-19 23:56:00,
2013-07-19 17:01:00,89.1,62.3,0.00,South,169,4.6,10.0,41,0.00,,,0.00,WUHU216CR1000,2013-07-20 00:01:00,
2013-07-19 17:06:00,89.1,62.3,0.00,South,169,4.6,8.8,41,0.00,,,0.00,WUHU216CR1000,2013-07-20 00:06:00,
2013-07-19 17:11:00,89.1,62.3,0.00,South,169,4.6,8.8,41,0.00,,,0.00,WUHU216CR1000,2013-07-20 00:11:00,
2013-07-19 17:16:00,88.8,61.4,0.00,South,178,4.6,8.8,40,0.00,,,0.00,WUHU216CR1000,2013-07-20 00:16:00,
2013-07-19 17:21:00,88.8,61.4,0.00,South,178,4.6,8.8,40,0.00,,,0.00,WUHU216CR1000,2013-07-20 00:21:00,
2013-07-19 17:26:00,88.8,61.4,0.00,South,178,4.6,8.8,40,0.00,,,0.00,WUHU216CR1000,2013-07-20 00:26:00,
2013-07-19 17:31:00,88.6,60.9,0.00,SSE,165,4.4,10.1,40,0.00,,,0.00,WUHU216CR1000,2013-07-20 00:31:00,
2013-07-19 17:36:00,88.6,60.9,0.00,SSE,165,4.4,10.1,40,0.00,,,0.00,WUHU216CR1000,2013-07-20 00:36:00,
2013-07-19 17:41:00,88.6,60.9,0.00,SSE,165,4.4,10.1,40,0.00,,,0.00,WUHU216CR1000,2013-07-20 00:41:00,
2013-07-19 17:46:00,87.4,59.4,0.00,SE,133,4.3,10.1,39,0.00,,,0.00,WUHU216CR1000,2013-07-20 00:46:00,
2013-07-19 17:51:00,87.4,59.4,0.00,SE,133,4.3,10.1,39,0.00,,,0.00,WUHU216CR1000,2013-07-20 00:51:00,
2013-07-19 17:56:00,87.4,59.4,0.00,SE,133,4.3,9.1,39,0.00,,,0.00,WUHU216CR1000,2013-07-20 00:56:00,
2013-07-19 18:01:00,87.4,59.4,0.00,SE,133,4.3,9.1,39,0.00,,,0.00,WUHU216CR1000,2013-07-20 01:01:00,
2013-07-19 18:06:00,86.8,59.1,0.00,SSE,167,4.4,9.1,39,0.00,,,0.00,WUHU216CR1000,2013-07-20 01:06:00,
2013-07-19 18:11:00,86.8,59.1,0.00,SSE,167,4.4,9.0,39,0.00,,,0.00,WUHU216CR1000,2013-07-20 01:11:00,
2013-07-19 18:16:00,85.3,58.4,0.00,SSE,150,4.6,9.0,40,0.00,,,0.00,WUHU216CR1000,2013-07-20 01:16:00,
2013-07-19 18:21:00,85.3,58.4,0.00,SSE,150,4.6,8.8,40,0.00,,,0.00,WUHU216CR1000,2013-07-20 01:21:00,
2013-07-19 18:26:00,85.3,58.4,0.00,SSE,150,4.6,8.8,40,0.00,,,0.00,WUHU216CR1000,2013-07-20 01:26:00,
2013-07-19 18:31:00,84.0,58.1,0.00,SE,138,3.9,8.8,41,0.00,,,0.00,WUHU216CR1000,2013-07-20 01:31:00,
2013-07-19 18:36:00,84.0,58.1,0.00,SE,138,3.9,7.6,41,0.00,,,0.00,WUHU216CR1000,2013-07-20 01:36:00,
2013-07-19 18:41:00,84.0,58.1,0.00,SE,138,3.9,7.6,41,0.00,,,0.00,WUHU216CR1000,2013-07-20 01:41:00,
2013-07-19 18:46:00,83.2,58.0,0.00,South,188,3.7,7.7,43,0.00,,,0.00,WUHU216CR1000,2013-07-20 01:46:00,
2013-07-19 18:51:00,83.2,58.0,0.00,South,188,3.7,7.7,43,0.00,,,0.00,WUHU216CR1000,2013-07-20 01:51:00,
2013-07-19 18:56:00,83.2,58.0,0.00,South,188,3.7,7.7,43,0.00,,,0.00,WUHU216CR1000,2013-07-20 01:56:00,
2013-07-19 19:01:00,80.5,56.9,0.00,SSW,199,4.2,8.9,44,0.00,,,0.00,WUHU216CR1000,2013-07-20 02:01:00,
2013-07-19 19:06:00,80.5,56.9,0.00,SSW,199,4.2,8.9,44,0.00,,,0.00,WUHU216CR1000,2013-07-20 02:06:00,
2013-07-19 19:11:00,80.5,56.9,0.00,SSW,199,4.2,8.9,44,0.00,,,0.00,WUHU216CR1000,2013-07-20 02:11:00,
2013-07-19 19:16:00,78.5,56.0,0.00,SSW,208,3.9,8.9,46,0.00,,,0.00,WUHU216CR1000,2013-07-20 02:16:00,
2013-07-19 19:21:00,78.5,56.0,0.00,SSW,208,3.9,8.2,46,0.00,,,0.00,WUHU216CR1000,2013-07-20 02:21:00,
2013-07-19 19:26:00,78.5,56.0,0.00,SSW,208,3.9,8.2,46,0.00,,,0.00,WUHU216CR1000,2013-07-20 02:26:00,
2013-07-19 19:31:00,76.3,55.3,0.00,SW,223,4.5,8.6,48,0.00,,,0.00,WUHU216CR1000,2013-07-20 02:31:00,
2013-07-19 19:36:00,76.3,55.3,0.00,SW,223,4.5,8.6,48,0.00,,,0.00,WUHU216CR1000,2013-07-20 02:36:00,
2013-07-19 19:41:00,76.3,55.3,0.00,SW,223,4.5,8.6,48,0.00,,,0.00,WUHU216CR1000,2013-07-20 02:41:00,
2013-07-19 19:46:00,74.6,54.4,0.00,SW,218,4.0,8.6,49,0.00,,,0.00,WUHU216CR1000,2013-07-20 02:46:00,
2013-07-19 19:51:00,74.6,54.4,0.00,SW,218,4.0,8.6,49,0.00,,,0.00,WUHU216CR1000,2013-07-20 02:51:00,
2013-07-19 19:56:00,74.6,54.4,0.00,SW,218,4.0,8.3,49,0.00,,,0.00,WUHU216CR1000,2013-07-20 02:56:00,
2013-07-19 20:01:00,74.6,54.4,0.00,SW,218,4.0,8.3,49,0.00,,,0.00,WUHU216CR1000,2013-07-20 03:01:00,
2013-07-19 20:06:00,72.6,53.7,0.00,SSW,208,3.2,8.3,52,0.00,,,0.00,WUHU216CR1000,2013-07-20 03:06:00,
2013-07-19 20:11:00,72.6,53.7,0.00,SSW,208,3.2,7.5,52,0.00,,,0.00,WUHU216CR1000,2013-07-20 03:11:00,
2013-07-19 20:16:00,72.6,53.7,0.00,SSW,208,3.2,7.5,52,0.00,,,0.00,WUHU216CR1000,2013-07-20 03:16:00,
2013-07-19 20:21:00,72.6,53.7,0.00,SSW,208,3.2,7.5,52,0.00,,,0.00,WUHU216CR1000,2013-07-20 03:21:00,
2013-07-19 20:26:00,72.6,53.7,0.00,SSW,208,3.2,7.5,52,0.00,,,0.00,WUHU216CR1000,2013-07-20 03:26:00,
2013-07-19 20:31:00,72.6,53.7,0.00,SSW,208,3.2,7.5,52,0.00,,,0.00,WUHU216CR1000,2013-07-20 03:31:00,
2013-07-19 20:46:00,67.5,52.5,0.00,SSW,212,0.4,5.0,59,0.00,,,0.00,WUHU216CR1000,2013-07-20 03:46:00,
2013-07-19 20:51:00,67.5,52.5,0.00,SSW,212,0.4,5.0,59,0.00,,,0.00,WUHU216CR1000,2013-07-20 03:51:00,
2013-07-19 20:56:00,67.5,52.5,0.00,SSW,212,0.4,5.0,59,0.00,,,0.00,WUHU216CR1000,2013-07-20 03:56:00,
2013-07-19 21:01:00,67.5,52.5,0.00,SSW,212,0.4,5.0,59,0.00,,,0.00,WUHU216CR1000,2013-07-20 04:01:00,
2013-07-19 21:02:00,65.9,52.3,0.00,SW,215,0.3,5.0,62,0.00,,,0.00,WUHU216CR1000,2013-07-20 04:02:00,
2013-07-19 21:07:00,65.9,52.3,0.00,SW,215,0.3,3.4,62,0.00,,,0.00,WUHU216CR1000,2013-07-20 04:07:00,
2013-07-19 21:12:00,65.9,52.3,0.00,SW,215,0.3,3.4,62,0.00,,,0.00,WUHU216CR1000,2013-07-20 04:12:00,
2013-07-19 21:17:00,64.1,52.3,0.00,SW,220,1.1,3.4,65,0.00,,,0.00,WUHU216CR1000,2013-07-20 04:17:00,
2013-07-19 21:21:00,64.1,52.3,0.00,SW,220,1.1,3.0,65,0.00,,,0.00,WUHU216CR1000,2013-07-20 04:21:00,
2013-07-19 21:27:00,64.1,52.3,0.00,SW,220,1.1,3.0,65,0.00,,,0.00,WUHU216CR1000,2013-07-20 04:27:00,
2013-07-19 21:31:00,62.9,52.0,0.00,SW,230,1.6,3.6,68,0.00,,,0.00,WUHU216CR1000,2013-07-20 04:31:00,
2013-07-19 21:37:00,62.9,52.0,0.00,SW,230,1.6,3.6,68,0.00,,,0.00,WUHU216CR1000,2013-07-20 04:37:00,
2013-07-19 21:42:00,62.9,52.0,0.00,SW,230,1.6,3.6,68,0.00,,,0.00,WUHU216CR1000,2013-07-20 04:42:00,
2013-07-19 21:47:00,61.5,51.8,0.00,SW,225,1.1,3.6,71,0.00,,,0.00,WUHU216CR1000,2013-07-20 04:47:00,
2013-07-19 21:52:00,61.5,51.8,0.00,SW,225,1.1,3.4,71,0.00,,,0.00,WUHU216CR1000,2013-07-20 04:52:00,
2013-07-19 21:57:00,61.5,51.8,0.00,SW,225,1.1,3.4,71,0.00,,,0.00,WUHU216CR1000,2013-07-20 04:57:00,
2013-07-19 22:02:00,60.3,51.7,0.00,SW,229,1.5,3.4,73,0.00,,,0.00,WUHU216CR1000,2013-07-20 05:02:00,
2013-07-19 22:07:00,60.3,51.7,0.00,SW,229,1.5,3.0,73,0.00,,,0.00,WUHU216CR1000,2013-07-20 05:07:00,
2013-07-19 22:11:00,60.3,51.7,0.00,SW,229,1.5,3.0,73,0.00,,,0.00,WUHU216CR1000,2013-07-20 05:11:00,
2013-07-19 22:16:00,59.7,51.6,0.00,SSW,211,1.5,3.0,74,0.00,,,0.00,WUHU216CR1000,2013-07-20 05:16:00,
2013-07-19 22:21:00,59.7,51.6,0.00,SSW,211,1.5,3.0,74,0.00,,,0.00,WUHU216CR1000,2013-07-20 05:21:00,
2013-07-19 22:27:00,59.7,51.6,0.00,SSW,211,1.5,3.0,74,0.00,,,0.00,WUHU216CR1000,2013-07-20 05:27:00,
2013-07-19 22:32:00,59.3,51.4,0.00,SW,225,1.5,4.1,75,0.00,,,0.00,WUHU216CR1000,2013-07-20 05:32:00,
2013-07-19 22:37:00,59.3,51.4,0.00,SW,225,1.5,4.1,75,0.00,,,0.00,WUHU216CR1000,2013-07-20 05:37:00,
2013-07-19 22:42:00,59.3,51.4,0.00,SW,225,1.5,4.1,75,0.00,,,0.00,WUHU216CR1000,2013-07-20 05:42:00,
2013-07-19 22:47:00,58.6,51.3,0.00,SW,230,1.8,4.1,77,0.00,,,0.00,WUHU216CR1000,2013-07-20 05:47:00,
2013-07-19 22:52:00,58.6,51.3,0.00,SW,230,1.8,3.7,77,0.00,,,0.00,WUHU216CR1000,2013-07-20 05:52:00,
2013-07-19 22:57:00,58.6,51.3,0.00,SW,230,1.8,3.7,77,0.00,,,0.00,WUHU216CR1000,2013-07-20 05:57:00,
2013-07-19 23:02:00,57.7,51.1,0.00,SW,227,2.2,3.7,79,0.00,,,0.00,WUHU216CR1000,2013-07-20 06:02:00,
2013-07-19 23:07:00,57.7,51.1,0.00,SW,227,2.2,3.5,79,0.00,,,0.00,WUHU216CR1000,2013-07-20 06:07:00,
2013-07-19 23:12:00,57.7,51.1,0.00,SW,227,2.2,3.5,79,0.00,,,0.00,WUHU216CR1000,2013-07-20 06:12:00,
2013-07-19 23:17:00,57.1,51.0,0.00,SW,226,2.3,4.1,80,0.00,,,0.00,WUHU216CR1000,2013-07-20 06:17:00,
2013-07-19 23:22:00,57.1,51.0,0.00,SW,226,2.3,4.1,80,0.00,,,0.00,WUHU216CR1000,2013-07-20 06:22:00,
2013-07-19 23:27:00,57.1,51.0,0.00,SW,226,2.3,4.1,80,0.00,,,0.00,WUHU216CR1000,2013-07-20 06:27:00,
2013-07-19 23:32:00,56.5,50.8,0.00,SW,226,2.1,4.1,81,0.00,,,0.00,WUHU216CR1000,2013-07-20 06:32:00,
2013-07-19 23:37:00,56.5,50.8,0.00,SW,226,2.1,3.6,81,0.00,,,0.00,WUHU216CR1000,2013-07-20 06:37:00,
2013-07-19 23:42:00,56.5,50.8,0.00,SW,226,2.1,3.6,81,0.00,,,0.00,WUHU216CR1000,2013-07-20 06:42:00,
2013-07-19 23:47:00,56.0,50.8,0.00,SW,221,0.9,3.6,83,0.00,,,0.00,WUHU216CR1000,2013-07-20 06:47:00,
2013-07-19 23:52:00,56.0,50.8,0.00,SW,221,0.9,2.9,83,0.00,,,0.00,WUHU216CR1000,2013-07-20 06:52:00,
2013-07-19 23:57:00,56.0,50.8,0.00,SW,221,0.9,2.9,83,0.00,,,0.00,WUHU216CR1000,2013-07-20 06:57:00,